MONITOR-2 (RS39S)       
1 57184U 23091U   23343.13655005  .00002631  00000+0  18687-3 0  9994
2 57184  97.6465  32.4024 0016060  46.3723 313.8833 15.05493656 24747
SVYATOBOR 1 (RS60S)     
1 57187U 23091X   23343.16068589  .00004355  00000+0  30093-3 0  9995
2 57187  97.6460  32.5258 0015329  43.2063 317.0364 15.06171845 24755
VIZARD-METEO (RS38S)    
1 57189U 23091Z   23343.10987429  .00004193  00000+0  28466-3 0  9995
2 57189  97.6448  32.5770 0014318  42.2692 317.9636 15.06862382 24750
NANOZOND 1 (RS49S)      
1 57190U 23091AA  23343.12166780  .00005476  00000+0  36092-3 0  9997
2 57190  97.6429  32.6571 0013119  48.7047 311.5308 15.07843480 24760
POLYTECH-UNIVERSE 3 (R*)
1 57191U 23091AB  23343.12567848  .00002312  00000+0  16507-3 0  9993
2 57191  97.6426  32.1957 0022029  60.9827 299.3603 15.05326952 24739
UTMN 2 (RS27S)          
1 57203U 23091AP  23343.12430327  .00003446  00000+0  23606-3 0  9995
2 57203  97.6454  32.5574 0014845  43.2766 316.9625 15.06643581 24759
ARCCUBE 1 (RS25S)       
1 57205U 23091AR  23343.11328184  .00006396  00000+0  41754-3 0  9994
2 57205  97.6405  32.6317 0013341  49.5702 310.6688 15.08125264 24768
KUZGTU 1 (RS47S)        
1 57217U 23091AV  23343.12646844  .00003566  00000+0  25203-3 0  9991
2 57217  97.6443  32.2259 0019733  51.6723 308.6274 15.05389492 24739
